Wind_Speed
3 1 3 5 3 8 9 3 0 6 16 14 7 3 2 6 6 7 7 4 5 6 8 9 10 11 11 11 11 10 10 10 10 9 8 8 6 7 8 9 9 10 10 11 13 12 12 13 12 12 12 13 14 14 15 15 15 16 16 17 17 16 16 16 16 16 17 17 16 15 14 12 11 12 12 13 13 12 14 14 14 14 15 14 14 13
5 3 5 9 7 13 12 5 4 5 12 10 6 6 4 3 4 7 7 7 5 4 7 10 11 11 10 11 10 10 10 9 9 9 9 9 7 6 8 10 10 9 9 10 11 11 12 13 12 12 12 13 13 13 14 14 14 15 15 16 15 15 15 14 13 13 12 12 13 13 14 15 14 11 10 11 10 10 12 13 14 14 15 14 14 14
4 3 3 7 7 11 10 4 5 6 8 5 4 6 4 3 5 5 5 8 5 3 6 8 8 9 10 10 9 10 8 7 7 7 8 9 8 8 8 9 9 9 9 9 9 10 12 12 12 12 12 12 12 12 12 12 13 13 14 14 14 14 15 15 15 13 12 11 11 11 11 13 14 12 12 11 9 10 11 11 13 13 14 14 14 14
5 4 4 9 10 11 7 2 5 7 6 4 4 2 4 5 5 3 5 8 4 4 7 7 7 6 7 9 8 8 8 7 7 6 7 7 7 8 8 8 8 9 9 8 8 9 10 11 11 11 10 10 10 10 11 11 11 12 13 13 13 14 14 14 15 15 15 14 13 12 10 10 12 12 13 14 13 12 12 12 11 12 13 13 13 13
5 5 4 10 13 12 6 2 3 4 2 3 5 4 4 8 7 5 8 9 4 4 8 8 6 3 5 8 8 7 7 8 9 7 7 7 7 9 8 8 7 8 8 8 8 7 9 10 10 10 10 10 10 9 10 9 9 11 12 12 12 13 13 13 15 15 15 14 13 12 11 10 10 10 10 13 12 10 10 10 10 10 11 12 12 13
4 2 0 6 8 7 6 1 4 7 2 0 5 6 5 8 9 7 9 8 1 3 9 9 5 3 6 9 8 7 8 8 9 9 9 8 8 9 8 8 7 7 8 7 8 8 9 9 9 9 9 10 10 8 8 8 9 12 11 11 12 11 11 13 15 14 14 14 13 12 11 10 8 7 7 8 9 9 8 9 10 10 9 10 12 12
3 1 0 5 3 6 4 1 5 8 4 1 5 8 6 5 6 7 9 8 1 3 7 7 2 2 6 7 7 8 8 9 9 9 9 8 8 8 7 8 7 7 8 7 8 9 9 9 9 9 9 10 10 8 8 7 9 12 11 11 12 11 11 13 14 12 12 14 13 12 11 11 11 9 8 8 9 9 10 10 10 11 10 11 11 12
4 2 2 2 3 3 2 2 1 3 3 1 4 6 6 4 4 6 7 6 2 3 5 5 4 3 3 4 6 8 8 8 9 9 10 9 8 8 7 8 8 8 8 7 8 9 8 9 9 9 9 10 9 9 8 8 10 12 10 10 10 11 11 12 12 12 12 12 12 12 13 13 13 13 11 11 10 9 10 12 11 11 13 12 12 12
2 4 2 1 1 3 1 3 0 2 1 1 3 4 3 4 4 4 5 3 1 1 2 3 5 3 2 2 4 8 9 8 10 10 10 9 9 8 7 7 7 8 8 7 8 8 8 9 9 9 10 10 9 9 8 9 11 10 7 8 10 11 10 9 10 10 11 11 11 12 12 11 12 12 11 11 12 10 9 12 12 10 11 11 11 12
4 4 6 4 4 4 1 1 4 3 2 3 5 5 1 3 3 3 4 2 1 1 1 4 5 2 0 1 3 7 9 10 9 9 10 11 10 9 9 9 7 7 8 8 9 9 9 9 10 10 11 10 10 10 9 9 10 9 6 7 8 9 9 8 8 9 10 10 10 12 12 11 11 12 11 11 11 11 10 11 11 10 10 10 10 11
4 2 1 3 4 3 2 4 3 2 3 3 5 3 2 3 3 2 3 3 2 1 4 8 9 5 1 2 4 5 7 9 9 9 10 12 11 11 10 10 9 8 7 8 10 10 10 10 10 11 11 11 11 10 9 9 10 8 6 6 7 7 7 7 7 8 9 10 11 12 12 12 12 12 12 11 10 11 11 11 11 10 10 11 10 10
5 5 2 2 3 4 2 2 3 1 1 3 1 2 2 2 2 2 2 1 1 1 3 8 10 7 2 1 6 9 10 10 11 11 12 13 13 12 10 10 11 10 8 9 11 11 11 11 11 12 12 11 11 10 9 9 9 8 6 5 5 6 6 7 6 6 7 9 10 11 12 13 13 13 12 12 11 11 11 11 11 11 11 11 11 11
2 4 3 3 2 5 5 2 2 3 1 1 5 3 3 1 2 2 2 1 3 1 2 8 9 3 1 1 6 11 12 10 11 12 13 15 15 14 12 11 10 8 7 8 10 11 10 11 11 12 12 12 11 11 9 8 8 7 5 4 4 6 6 4 5 5 6 8 8 9 11 12 12 13 12 11 11 11 10 10 11 11 11 11 11 11
2 2 3 3 2 4 6 4 1 2 3 4 5 1 3 1 2 2 1 2 1 2 3 6 9 3 0 3 3 6 9 8 10 12 13 14 15 15 13 12 10 9 8 8 9 10 10 11 12 12 12 12 11 11 10 9 7 6 6 3 2 5 4 2 3 4 5 6 7 8 9 10 11 11 10 11 11 9 9 10 10 10 10 10 11 11
1 2 1 3 1 2 3 3 3 3 4 2 2 1 3 1 2 4 2 0 2 3 5 3 6 3 2 3 3 7 5 7 11 13 11 11 14 13 12 11 10 10 9 7 9 11 11 13 14 13 12 11 12 11 10 9 8 6 6 5 3 3 3 2 2 2 3 4 5 5 6 8 10 9 9 10 10 8 8 9 9 9 9 9 11 10
1 2 1 4 1 4 1 7 7 3 2 0 1 1 3 1 1 2 1 2 3 3 3 1 3 3 2 3 3 4 4 8 11 14 13 13 15 12 11 11 10 10 9 8 8 11 13 14 14 14 12 11 12 11 9 9 9 6 6 7 5 2 2 1 0 0 0 3 4 4 4 6 8 7 7 8 8 7 6 7 8 8 9 10 11 10
3 2 2 5 2 2 4 6 7 3 1 1 1 2 4 3 1 0 1 4 4 2 1 1 4 4 2 1 4 3 4 7 9 11 12 15 16 13 10 10 9 9 9 6 9 12 13 14 14 14 11 12 14 13 11 10 9 7 6 6 6 4 3 1 2 1 1 4 4 3 2 4 6 7 7 7 8 10 8 6 7 7 8 10 10 10
3 3 4 3 4 5 4 0 4 5 4 3 0 2 4 3 1 2 0 2 2 2 1 5 6 3 1 1 6 6 4 7 8 9 10 13 15 13 12 11 10 10 9 7 13 13 14 14 14 14 12 11 14 12 12 11 10 10 8 6 6 6 3 1 1 1 2 3 1 3 2 4 5 7 9 9 10 12 11 8 8 8 9 10 10 10
1 3 3 1 2 7 3 4 4 6 7 4 2 3 3 0 1 1 1 0 1 3 2 6 6 2 1 2 4 5 5 6 8 10 10 11 12 11 12 14 12 11 8 7 10 10 13 13 12 14 13 11 11 9 12 14 9 10 10 7 5 3 1 0 1 3 3 3 3 3 2 3 4 6 8 9 10 12 13 11 11 10 10 10 10 11
1 2 2 2 1 4 4 4 2 4 6 5 4 3 3 1 3 2 2 1 2 4 2 2 2 1 1 2 2 5 5 6 7 9 9 10 11 8 9 11 10 9 7 7 9 8 12 14 12 14 13 11 12 8 10 16 12 11 13 9 6 3 2 2 2 4 5 5 5 4 3 3 4 5 5 6 8 10 11 11 12 11 10 11 11 10
2 2 0 3 2 2 4 3 2 2 3 4 3 2 2 1 3 1 1 0 3 4 3 1 1 3 2 1 3 7 4 5 6 6 7 7 9 8 8 9 8 8 7 7 7 6 11 16 13 13 11 11 13 10 8 15 14 13 14 10 6 5 4 4 4 5 6 6 4 3 4 2 3 4 4 4 6 7 8 10 12 12 12 13 12 10
2 1 2 1 2 3 1 4 3 4 3 4 3 2 3 2 1 2 1 1 3 2 1 1 1 3 2 4 3 7 7 3 4 6 6 6 8 8 7 7 6 7 7 6 6 5 8 15 13 13 11 12 11 11 10 13 13 11 13 11 8 7 6 5 5 6 7 5 4 2 2 3 2 2 4 6 5 5 7 10 11 13 15 14 13 12
2 2 3 3 3 0 5 8 6 6 5 5 5 4 4 3 3 3 2 2 3 2 2 3 3 3 1 4 7 7 5 1 3 6 6 5 7 6 5 7 6 6 7 6 7 5 6 13 13 12 13 11 8 9 11 12 10 8 10 10 8 7 6 5 5 7 7 6 4 2 2 3 3 2 5 7 6 5 7 9 11 13 16 15 14 15
1 2 3 4 2 1 3 4 4 3 5 5 2 1 3 4 4 4 5 4 3 4 3 1 2 3 1 2 6 7 3 2 3 7 7 5 6 6 7 9 6 6 7 6 7 5 5 12 13 10 13 13 10 11 11 10 8 6 6 6 6 6 5 5 6 7 7 6 4 2 2 3 3 3 4 6 6 6 7 9 11 12 14 16 16 16
1 1 2 4 3 2 2 3 3 2 3 2 1 3 4 5 4 2 3 3 2 5 8 4 1 3 3 3 5 5 6 3 4 7 8 6 7 7 7 8 7 6 7 7 7 6 6 9 11 10 11 11 11 13 13 12 10 7 7 9 8 7 6 5 6 6 6 5 4 4 3 3 4 3 4 6 7 6 6 9 11 12 14 16 15 16
1 1 1 2 2 1 3 3 1 2 4 2 3 5 5 6 6 4 3 3 2 5 6 3 2 3 5 5 5 6 8 6 6 7 7 7 7 7 7 7 7 6 7 7 7 7 6 7 9 11 12 11 8 9 12 15 13 9 9 9 9 9 9 6 5 6 5 4 3 4 4 3 4 4 4 6 7 7 8 10 11 12 14 15 15 16
2 2 2 0 3 5 6 5 2 3 5 4 2 3 5 6 6 4 3 3 4 3 2 3 1 2 5 5 4 6 7 6 7 6 6 7 6 6 6 6 6 6 5 7 6 6 7 6 8 9 10 9 6 4 3 7 11 10 8 6 5 7 5 5 5 4 5 4 2 2 4 3 4 5 5 5 6 8 9 10 11 13 14 15 15 16
4 3 1 1 2 4 5 4 4 4 6 6 2 2 4 4 4 4 3 5 5 3 1 2 2 3 3 4 3 5 6 6 7 6 5 7 5 5 6 6 7 7 6 7 7 7 8 8 7 8 9 8 8 6 3 1 2 3 3 4 5 6 5 4 4 3 5 5 2 3 5 4 5 6 5 4 5 8 9 9 10 12 15 16 16 18
5 2 1 2 2 1 2 3 3 4 5 4 3 2 2 1 1 3 4 6 6 4 3 2 2 1 3 5 4 5 6 5 6 6 6 7 6 6 6 6 6 7 8 9 9 10 9 8 8 9 8 7 8 6 2 1 3 4 7 8 6 5 4 2 5 3 4 5 2 2 3 5 6 6 4 4 5 8 8 9 12 15 17 18 19 21
3 1 1 5 4 2 2 1 2 4 3 3 2 2 1 1 2 4 4 5 5 4 4 3 2 3 4 4 6 6 5 5 6 6 7 7 7 6 6 7 7 8 10 10 9 9 9 9 10 12 11 9 8 5 3 4 6 8 10 6 3 3 2 4 6 1 2 2 2 4 5 8 8 5 6 6 7 9 12 15 18 18 18 17 19 19
1 1 1 5 5 4 4 1 2 5 5 3 3 3 2 1 1 2 2 2 2 2 2 1 1 3 4 5 7 6 4 6 6 4 5 6 7 8 7 8 9 8 9 10 10 9 9 9 9 12 13 11 8 5 5 8 9 9 6 3 5 3 4 6 5 2 1 3 4 4 6 8 5 7 11 13 12 12 15 17 18 17 16 16 18 18
2 2 2 3 5 3 6 4 3 4 6 6 4 4 4 3 0 1 2 3 2 2 0 1 1 4 6 6 6 4 3 7 6 4 4 3 4 6 5 4 3 3 3 1 6 8 8 7 7 9 9 9 8 9 10 9 6 2 3 5 4 4 6 7 5 1 2 4 5 6 7 9 10 11 13 15 15 15 16 16 15 16 17 17 17 17
3 4 3 2 4 2 6 4 2 3 5 5 3 3 5 4 1 1 3 3 1 2 1 1 2 4 7 6 6 4 5 6 6 4 4 2 1 4 3 2 4 5 6 6 4 1 4 7 7 9 9 5 3 3 3 5 6 7 8 6 4 4 3 2 3 2 3 4 4 6 10 12 12 13 14 14 15 15 15 15 16 17 18 17 16 17
3 4 3 3 3 1 5 5 2 4 4 1 2 2 1 2 1 3 3 3 6 2 2 2 3 6 6 5 6 6 5 5 6 5 4 4 4 4 5 4 5 6 6 6 7 8 12 15 14 15 15 13 11 11 12 11 10 8 6 5 5 5 4 2 2 2 3 4 6 10 12 12 12 13 13 13 14 14 14 15 17 17 16 15 16 18
3 4 4 3 3 2 3 4 3 4 1 3 3 4 3 2 1 2 5 2 4 4 2 2 2 6 5 4 6 7 7 4 7 7 6 6 5 4 5 5 5 5 7 8 9 10 13 15 15 15 14 13 11 11 11 10 9 7 6 7 6 3 2 3 3 5 8 9 9 11 11 11 12 13 13 14 14 13 14 16 16 15 15 16 18 18
1 3 3 3 3 2 1 3 3 1 5 7 5 4 1 1 1 2 4 5 5 5 4 3 3 6 5 4 4 5 6 7 6 6 7 5 5 5 5 6 7 7 8 8 8 10 12 14 13 11 11 11 11 11 10 8 8 8 5 5 6 4 3 4 6 8 10 10 9 9 10 11 12 14 14 13 13 13 14 15 14 14 16 17 17 16
3 3 2 2 2 2 3 4 3 2 5 7 6 4 2 1 1 2 3 5 6 6 6 4 3 6 6 4 3 3 7 6 4 5 8 7 6 7 7 8 10 10 10 11 11 12 12 12 11 10 10 12 12 11 9 6 6 6 4 3 2 3 5 7 8 9 10 9 9 11 11 12 12 13 13 12 12 14 15 14 13 15 17 17 16 16
3 3 2 2 2 1 3 5 4 4 3 5 6 5 3 2 1 1 3 5 4 7 8 5 5 6 6 5 5 5 5 3 6 5 8 8 7 8 8 10 12 12 13 14 13 13 12 11 11 11 11 13 11 9 8 5 2 1 2 4 5 6 7 8 8 9 11 10 10 12 12 11 12 13 12 12 13 14 14 12 13 16 16 15 16 17
2 2 4 3 2 3 3 4 4 3 1 6 7 6 5 3 2 1 4 3 5 9 9 5 5 7 7 6 6 6 4 5 3 5 8 8 8 8 8 10 13 14 14 14 14 13 12 12 12 11 11 10 8 7 5 2 1 3 4 4 6 8 10 9 8 9 12 11 11 11 10 10 11 11 10 11 12 12 11 12 13 15 15 15 16 17
3 3 3 4 4 4 3 4 4 1 3 7 9 7 6 5 3 2 3 1 5 7 8 5 4 6 7 6 6 5 6 3 5 8 8 9 8 8 9 11 12 14 15 16 15 13 11 12 12 12 12 10 7 6 3 1 1 4 5 3 5 8 10 9 9 10 11 11 11 11 10 10 11 9 9 10 11 10 10 11 13 15 15 16 17 18
4 4 4 5 5 4 3 5 4 1 5 7 8 8 7 5 3 3 0 3 4 5 6 3 2 5 7 6 5 4 2 5 9 9 9 9 9 9 11 12 14 15 16 16 14 11 11 10 8 8 10 8 4 3 3 2 1 4 6 9 11 11 10 10 10 10 10 11 12 10 9 11 10 8 9 10 11 10 10 11 14 15 16 17 18 19
5 4 4 5 5 4 3 5 3 1 4 6 7 8 5 3 2 1 3 3 4 5 4 1 1 4 7 6 5 4 7 10 11 10 10 9 8 9 10 11 13 15 16 14 10 7 5 7 8 7 7 6 1 2 3 3 3 9 15 16 14 12 11 11 10 10 10 11 12 10 9 11 11 9 9 11 11 10 10 12 14 15 16 18 19 18
3 3 5 5 4 4 4 4 4 1 3 7 8 6 3 1 2 4 4 4 4 4 3 2 3 4 6 7 8 9 10 10 10 9 9 8 8 8 10 11 14 16 15 11 9 5 3 4 7 8 7 5 2 4 5 5 8 14 18 16 13 12 12 11 10 10 9 10 12 11 8 10 12 9 9 11 11 10 12 14 14 14 16 18 18 16
2 3 4 2 2 4 4 2 1 1 7 8 6 3 3 2 3 2 1 3 4 3 3 2 3 4 6 7 9 10 9 9 9 9 8 8 7 8 9 12 15 14 12 11 10 8 2 3 9 11 8 8 6 6 9 14 17 17 17 14 12 12 11 10 11 10 9 10 11 10 8 9 11 9 9 11 10 10 13 14 13 14 16 17 17 15
1 2 1 1 1 4 3 2 3 5 8 7 3 1 3 4 4 1 1 1 2 3 2 3 4 5 5 6 8 9 8 8 8 8 8 8 8 8 9 11 12 12 12 12 12 8 5 8 13 12 9 10 12 13 16 18 18 17 15 12 11 10 10 10 10 10 10 10 10 10 8 8 11 10 9 10 11 11 13 14 12 13 15 16 15 14
3 3 1 2 1 2 3 1 4 6 7 7 4 1 2 3 4 3 2 3 3 3 2 3 7 6 5 6 7 8 8 8 7 7 7 8 8 9 10 11 11 11 12 15 13 9 11 14 15 14 13 14 15 15 16 15 15 15 13 11 10 10 10 9 9 9 9 9 10 11 8 8 11 11 9 10 11 10 13 13 11 12 13 14 14 13
6 6 4 4 3 1 2 2 5 6 7 7 6 4 4 4 3 4 3 4 2 4 3 4 8 7 5 5 7 7 8 9 7 7 7 7 7 9 11 11 11 11 14 16 14 13 15 16 15 15 16 15 14 14 14 13 13 13 11 10 10 10 10 9 8 9 8 8 10 11 9 8 11 10 9 10 10 9 12 12 11 12 12 11 12 12
3 5 4 5 5 4 4 3 2 4 5 5 5 5 5 6 6 5 4 3 2 4 4 5 7 6 5 6 6 7 10 10 8 7 8 7 7 8 11 13 13 15 17 16 15 15 16 16 16 16 16 15 14 14 13 13 12 11 10 9 9 8 8 8 7 8 8 7 9 11 9 8 10 10 9 11 9 9 11 11 9 11 11 11 12 12
4 2 2 3 4 5 6 7 5 5 6 7 8 7 5 6 7 7 6 5 4 5 5 5 7 7 7 6 5 6 9 10 8 7 8 8 7 8 11 15 17 17 17 16 16 17 17 17 17 18 16 15 14 13 13 12 11 10 9 9 8 8 8 7 8 9 8 7 9 9 8 7 9 9 9 10 9 7 9 9 8 9 10 10 12 13
4 5 4 3 4 4 5 5 3 3 5 5 6 7 6 6 7 8 8 7 7 6 7 6 6 7 8 8 7 6 7 8 9 9 7 6 10 12 15 20 20 18 18 18 17 18 18 18 18 18 17 16 14 13 13 12 10 9 9 9 9 9 8 8 8 9 9 8 7 7 7 7 9 9 9 9 8 6 7 8 9 10 10 10 11 12
4 5 4 5 5 4 4 4 4 4 4 1 2 5 7 6 6 7 9 9 9 8 8 7 7 7 7 8 10 9 6 5 9 12 7 4 11 21 24 23 21 19 19 20 19 19 19 19 19 18 17 16 14 13 12 11 10 10 9 9 9 9 9 9 9 9 9 8 6 6 7 7 8 8 8 9 8 6 6 6 6 9 10 10 9 10
Wind_Direction
166 188 230 260 255 252 251 187 280 79 118 145 174 184 64 79 109 131 137 156 197 164 138 147 144 144 151 151 155 154 149 145 148 152 136 126 124 122 129 125 120 117 112 108 105 104 106 101 93 87 82 78 75 70 68 65 62 58 55 53 48 45 41 39 39 34 29 27 26 28 20 27 52 41 34 42 32 30 34 28 26 23 18 20 22 22
176 212 235 256 241 228 235 184 166 97 114 141 148 120 64 38 129 133 141 161 194 183 140 149 147 143 151 152 156 158 156 154 153 151 139 135 137 133 128 123 120 117 111 108 107 106 104 100 95 91 88 86 81 77 73 69 67 64 59 57 51 49 46 42 46 44 43 37 30 33 23 23 43 40 25 37 35 33 37 30 26 22 17 18 19 20
231 271 243 248 240 219 225 180 141 100 95 117 103 106 99 101 128 129 156 155 171 195 144 146 145 143 151 152 160 162 158 156 151 147 144 142 137 133 129 125 124 120 115 113 106 101 97 96 98 95 92 93 91 86 81 74 74 72 66 63 57 55 51 46 47 43 40 41 37 43 39 33 37 25 12 25 41 39 37 35 29 21 16 17 17 17
240 255 212 217 229 237 235 172 145 120 104 100 100 133 120 122 134 146 174 167 179 175 145 146 140 135 148 152 163 168 160 150 148 158 151 138 134 137 135 127 128 123 118 115 107 100 100 102 105 105 105 106 101 92 89 86 86 84 76 70 61 58 57 53 52 47 42 39 38 40 44 53 51 33 14 18 37 37 27 29 27 23 19 17 16 15
277 257 202 206 213 236 248 194 172 137 122 107 131 176 153 152 175 182 163 164 181 155 151 156 134 132 179 166 164 170 172 156 153 169 156 146 148 140 133 132 134 130 123 119 116 112 110 111 112 117 122 115 102 93 97 101 97 92 85 79 73 65 60 60 56 52 49 44 42 40 38 47 57 57 37 21 27 31 24 25 20 21 25 19 16 14
297 296 208 235 204 221 262 244 127 126 138 174 154 181 172 157 175 179 143 129 129 177 167 168 143 162 188 174 166 167 178 168 164 172 163 160 158 145 142 144 143 138 134 130 126 121 115 117 119 122 122 112 106 101 101 103 97 89 80 74 74 66 57 63 62 54 51 47 42 42 38 31 31 55 68 40 23 13 17 34 23 16 26 19 13 14
272 52 88 281 250 214 228 90 125 137 133 196 186 189 178 146 154 161 125 104 127 201 188 196 170 148 174 174 174 175 179 174 173 176 172 170 162 160 155 144 149 149 144 142 132 127 126 126 127 125 119 112 112 111 107 106 99 92 84 79 76 64 49 54 61 58 57 54 45 41 37 24 14 21 41 40 30 11 7 30 28 10 17 18 11 15
311 33 148 256 298 261 195 105 198 174 133 142 199 197 181 152 146 161 137 118 169 189 204 199 124 104 179 190 182 183 186 179 182 185 180 179 169 168 160 147 159 157 152 153 132 127 134 134 135 132 122 117 119 123 121 109 95 92 91 93 91 82 64 51 53 51 53 57 51 48 40 26 17 13 14 19 25 22 10 21 25 9 9 14 11 12
339 349 315 258 2 14 202 186 89 339 334 146 204 226 196 155 165 178 151 142 240 162 192 178 138 138 208 229 200 189 194 192 193 193 186 186 177 169 164 159 162 158 161 157 133 133 142 139 138 132 124 125 126 122 120 112 105 104 101 96 93 90 83 66 58 51 46 45 46 49 42 32 24 11 13 18 15 20 21 19 21 13 5 8 9 7
54 351 327 336 33 44 276 118 56 359 21 120 197 219 180 159 187 188 149 153 323 86 234 233 217 231 147 195 204 189 197 198 193 196 191 188 183 173 166 162 161 168 173 155 135 139 143 140 136 129 125 125 122 119 127 129 118 115 108 94 88 86 85 75 62 55 49 39 39 44 33 29 29 11 13 25 15 15 27 23 17 14 7 7 6 3
95 154 276 346 15 13 12 56 53 335 44 134 208 207 185 198 199 171 128 123 71 44 225 209 206 217 187 178 188 192 210 197 184 193 189 181 181 176 168 163 166 180 184 153 138 141 141 140 137 131 127 124 125 131 142 139 125 125 119 95 88 88 91 85 65 54 50 39 36 41 31 25 28 18 14 22 21 16 20 21 16 13 11 9 6 2
153 136 114 53 23 339 336 112 148 115 59 212 205 4 248 214 205 180 94 104 237 260 189 177 191 213 229 203 189 198 217 202 181 185 183 179 182 176 165 168 173 180 184 158 144 144 142 144 144 136 131 131 138 146 153 145 136 139 132 116 114 99 88 86 71 54 54 46 35 37 33 26 26 25 19 18 24 21 14 14 14 13 12 8 5 4
124 102 117 116 46 354 355 12 122 117 180 141 65 1 287 237 237 214 95 252 247 257 171 163 164 184 337 94 169 189 210 204 178 175 180 181 180 172 167 176 175 173 186 169 148 143 144 153 153 141 142 147 151 156 157 150 145 143 139 142 131 104 91 86 75 55 54 55 43 36 33 28 26 28 25 19 20 20 12 9 11 13 11 6 4 6
18 103 135 118 88 49 32 18 58 56 8 41 76 295 289 331 287 318 102 251 335 355 272 180 155 160 315 97 142 201 203 185 161 163 177 177 168 167 170 172 165 167 195 186 153 149 152 158 154 151 159 159 158 166 159 153 158 150 145 163 134 105 105 91 74 55 48 56 50 39 33 32 30 28 32 28 17 13 9 6 10 11 8 5 3 3
258 274 65 48 74 137 45 64 103 40 11 19 124 225 293 295 304 341 22 263 291 285 275 214 158 195 215 137 217 240 190 144 137 145 165 166 158 164 163 160 161 170 199 201 160 151 150 151 151 159 171 165 160 169 162 160 175 167 157 175 174 134 128 103 72 50 43 65 57 40 40 38 27 22 36 37 19 8 6 2 6 7 4 5 359 355
196 292 126 87 145 221 118 113 128 102 49 348 208 235 295 262 212 314 26 187 243 262 265 235 128 132 164 165 231 244 156 134 133 143 157 153 152 158 151 158 167 169 200 210 156 138 140 147 150 157 177 175 159 165 174 177 180 178 184 185 179 176 150 129 89 42 89 90 67 32 42 45 25 15 31 41 23 8 11 8 3 2 4 2 353 349
93 305 177 124 177 219 63 108 140 132 113 139 175 243 280 275 208 304 190 214 239 261 267 74 81 84 116 218 294 292 167 147 136 148 154 149 154 157 149 164 169 168 204 195 132 131 142 149 152 157 186 188 162 165 184 183 176 179 204 208 196 201 184 178 229 217 123 88 67 355 24 49 21 10 13 33 31 8 360 10 8 6 8 358 344 343
109 230 209 158 175 124 59 359 158 159 181 166 74 259 263 276 327 46 315 272 292 299 7 89 105 106 111 245 296 295 209 158 144 153 155 154 160 157 154 167 170 174 199 167 136 144 147 150 155 159 191 197 165 170 182 176 180 179 195 237 224 204 191 168 271 327 28 53 25 309 24 46 22 18 7 12 27 2 344 360 18 15 7 354 340 337
126 216 178 176 156 124 143 242 179 176 202 223 282 258 248 287 51 13 255 294 298 300 18 102 130 139 124 196 249 257 212 173 162 158 156 157 157 157 160 165 169 171 176 156 148 151 144 149 155 161 191 194 160 184 185 170 187 180 179 233 238 198 213 181 282 306 329 331 309 309 16 33 23 30 9 2 15 358 344 354 5 3 357 347 338 333
33 293 143 137 90 126 180 219 176 187 213 236 249 248 272 176 144 213 239 209 278 305 5 94 115 105 199 221 261 257 207 178 178 162 155 158 156 163 158 152 160 160 157 167 171 159 145 150 156 164 194 192 157 186 185 164 184 188 178 213 225 191 252 245 258 291 298 302 313 333 357 41 36 22 3 355 359 348 342 349 349 347 346 335 324 323
105 295 208 141 136 211 215 186 168 200 214 241 238 224 281 143 123 254 278 255 291 315 8 12 75 102 151 99 8 305 254 175 180 157 146 156 153 153 147 149 166 161 160 173 174 177 155 152 161 165 191 209 173 169 180 169 183 187 179 201 208 189 230 240 244 264 266 267 271 311 336 10 27 2 343 340 344 337 339 345 344 343 337 323 313 313
132 261 303 188 215 258 157 101 36 339 329 311 306 335 354 23 32 317 291 242 281 299 90 226 167 110 105 114 122 281 279 182 171 147 139 153 148 148 151 154 159 151 153 155 161 206 169 154 167 165 180 226 198 170 192 188 183 186 186 194 193 189 218 231 239 256 263 268 257 244 293 305 307 340 333 325 328 337 341 344 346 340 324 313 317 322
62 288 283 253 230 245 73 75 39 345 316 298 294 315 346 353 335 321 325 355 335 294 198 196 140 114 86 116 152 221 250 183 175 142 134 144 137 145 153 139 132 142 153 154 163 205 177 153 167 175 181 206 203 187 198 184 171 179 180 180 183 195 216 233 253 268 270 268 265 244 244 281 295 347 335 322 325 337 343 343 341 332 320 319 327 327
76 260 288 297 264 175 95 108 94 10 308 280 258 273 328 344 350 337 331 339 322 305 302 294 110 122 141 124 176 195 160 150 195 136 133 146 138 156 164 148 149 153 152 160 161 174 183 162 166 192 199 190 189 197 192 175 176 183 176 184 204 216 228 243 252 265 273 276 293 311 279 270 284 312 313 308 312 320 328 331 327 324 324 326 327 327
243 284 320 312 298 259 206 172 131 31 305 278 49 37 352 337 347 341 313 288 283 356 359 347 68 125 163 213 209 154 113 167 194 139 142 152 145 161 165 154 158 151 151 166 159 161 200 191 175 192 214 207 198 194 188 186 186 189 208 209 210 229 242 254 265 266 272 292 323 317 289 270 277 283 289 296 303 313 323 327 327 330 329 325 324 325
252 338 284 298 3 5 284 290 4 329 314 343 25 17 1 357 7 358 304 279 327 19 21 18 41 112 167 205 204 137 130 171 164 136 147 144 142 157 154 149 153 148 153 162 162 170 198 222 205 194 210 228 223 198 191 188 179 190 227 212 203 225 225 226 266 276 269 265 285 300 299 300 309 322 323 317 325 335 336 331 328 327 322 317 317 318
286 274 260 235 111 160 224 269 318 302 306 325 347 357 3 12 12 335 305 345 356 351 40 62 33 189 164 176 184 140 138 156 147 146 154 140 145 152 139 145 150 144 158 165 175 186 183 212 233 214 209 226 250 262 218 177 174 192 223 218 216 242 239 223 231 254 280 267 221 267 292 293 304 315 317 323 332 328 323 319 317 316 316 316 321 330
287 274 251 258 167 179 231 291 335 296 291 309 326 48 35 20 359 330 347 14 352 322 52 90 254 258 126 138 176 140 134 146 146 154 150 135 146 147 135 150 155 157 183 187 187 193 187 193 216 228 221 206 219 257 309 36 182 206 256 274 267 278 300 280 204 205 275 274 234 256 276 277 280 281 278 284 303 302 298 304 317 329 333 336 343 347
284 285 128 255 256 251 286 309 318 287 291 318 339 78 101 132 355 2 17 19 358 345 41 58 291 324 109 147 158 125 132 145 146 157 153 145 165 168 154 162 171 180 199 201 193 190 191 190 191 210 224 207 202 218 239 284 284 274 256 251 251 261 272 184 146 167 272 269 277 313 313 306 296 287 279 280 301 312 321 337 348 351 347 348 350 345
285 315 343 294 283 218 206 305 290 263 256 244 211 150 137 181 69 49 36 28 7 353 14 8 343 56 86 122 123 112 127 136 135 152 157 158 170 167 160 179 201 207 204 203 200 187 185 195 190 185 196 211 210 200 201 228 247 259 257 264 341 340 336 117 125 141 284 287 13 14 333 310 309 339 8 359 349 354 3 0 355 351 350 351 348 342
291 359 311 299 288 208 166 154 270 261 269 253 208 168 146 148 53 53 53 41 4 350 22 347 212 127 89 88 104 108 123 128 129 145 152 159 172 172 181 198 206 219 220 204 192 183 182 195 190 175 179 190 184 180 218 229 235 256 275 356 27 31 69 90 116 171 291 14 11 348 322 318 339 22 19 7 0 5 5 355 349 353 357 354 347 343
184 270 262 270 277 210 160 175 220 255 286 282 254 220 181 167 32 57 90 65 355 323 10 254 238 139 127 116 112 124 154 143 147 167 157 159 184 176 188 223 235 286 317 150 172 185 187 189 182 166 170 180 182 201 224 223 223 256 51 64 60 72 75 76 92 106 6 20 360 342 359 18 22 18 16 12 4 3 2 356 359 4 360 351 347 348
206 250 245 248 279 212 156 167 182 224 264 270 264 236 194 181 185 165 156 144 164 292 320 44 56 102 129 142 143 166 194 169 159 168 155 141 102 97 87 15 359 15 23 20 358 336 84 78 86 95 96 97 120 151 143 118 98 70 67 72 70 70 64 78 106 84 13 8 352 8 26 29 21 15 16 15 6 2 4 7 9 4 353 349 351 351
254 273 265 247 268 210 136 133 190 243 253 303 30 25 146 176 204 226 241 167 145 167 324 15 90 114 143 168 151 163 210 191 148 131 108 94 78 71 76 62 32 37 49 33 17 41 65 69 74 80 80 76 73 76 81 88 91 89 91 91 75 51 27 36 94 76 33 15 11 27 30 21 17 19 19 15 9 5 9 12 6 356 351 355 356 350
215 260 274 268 271 282 116 138 232 254 196 109 81 60 36 341 308 279 294 292 157 168 211 252 165 143 171 202 164 172 199 164 124 119 103 87 88 96 98 97 81 68 72 67 59 67 79 84 84 82 84 91 93 94 96 102 110 113 107 104 105 100 71 63 47 28 35 36 29 25 22 20 27 31 26 16 9 9 13 9 359 354 359 3 355 346
218 239 265 279 270 274 216 212 246 223 149 146 129 110 112 266 231 243 268 264 236 201 185 221 199 152 173 217 189 172 149 122 120 129 121 119 133 135 128 123 118 108 98 92 88 88 90 92 95 100 114 120 113 105 102 107 119 121 119 133 142 142 113 82 62 42 36 36 34 27 28 37 42 38 25 10 9 17 14 2 357 2 7 1 348 345
276 256 251 257 244 269 282 264 261 231 182 160 140 142 155 119 142 215 253 263 247 201 176 205 201 152 160 192 190 116 105 123 172 151 134 152 158 137 132 127 120 117 115 111 105 100 100 106 112 115 113 103 96 95 93 93 112 131 145 146 112 58 52 55 52 48 46 45 44 45 47 48 43 33 19 11 18 20 7 358 5 11 7 355 348 355
276 289 294 274 199 211 292 287 279 272 229 137 124 129 117 76 60 299 284 269 226 166 157 191 197 156 155 177 164 123 121 193 226 173 146 152 142 126 126 124 122 124 121 117 116 117 118 119 114 105 99 97 98 103 102 100 119 155 111 80 49 30 48 51 33 38 55 60 54 52 54 49 39 30 18 16 22 14 0 6 17 12 3 356 357 5
234 283 284 285 248 218 256 274 277 281 190 126 126 126 124 134 148 287 293 258 166 148 151 179 185 156 159 174 153 145 193 235 214 142 132 132 131 134 134 128 127 127 126 128 129 127 127 128 124 123 122 117 112 109 107 120 77 33 26 46 45 41 53 54 40 48 64 67 58 50 51 48 39 29 20 20 19 9 5 18 21 11 5 6 8 11
207 239 238 249 261 244 237 262 278 310 118 136 141 139 133 137 157 242 275 135 129 138 141 154 176 159 156 157 151 179 225 222 118 119 126 132 138 137 130 129 133 135 135 131 125 126 142 148 144 146 142 129 118 120 136 237 63 31 346 345 53 63 65 62 57 61 67 69 58 46 46 48 37 28 28 24 16 10 16 26 23 15 15 19 19 15
208 223 229 246 255 229 209 250 275 70 115 138 143 138 134 142 196 246 220 91 96 107 115 133 185 152 145 152 170 201 193 112 116 129 137 141 139 130 129 135 140 137 130 124 128 147 160 146 127 129 129 118 118 151 188 223 124 56 43 58 70 75 76 73 71 69 66 65 55 43 47 47 30 25 38 29 15 13 23 31 27 23 27 29 22 14
214 207 216 242 260 253 240 254 262 120 124 138 130 126 139 175 206 156 112 97 98 101 106 159 193 143 146 151 145 125 110 117 133 143 141 139 133 128 136 140 135 125 116 120 141 161 140 104 94 97 100 94 102 246 281 316 39 76 81 79 78 79 79 78 79 72 64 62 52 41 50 45 25 25 43 31 16 17 29 36 34 32 36 33 22 12
209 207 221 221 229 246 253 266 283 310 131 142 136 136 177 227 82 119 143 139 130 126 132 201 191 154 149 139 126 124 126 131 139 137 133 134 130 132 139 129 116 112 115 132 148 135 71 76 97 94 78 65 27 318 340 23 64 86 90 86 81 83 80 74 73 66 64 66 51 37 46 43 26 27 43 31 16 21 37 41 38 39 42 35 22 12
169 196 248 237 197 228 235 243 294 104 135 153 157 151 178 154 73 62 132 118 134 155 161 187 173 143 150 150 134 128 132 134 135 135 137 138 134 136 139 125 118 128 145 152 140 127 111 85 92 86 66 53 45 34 61 85 92 92 92 90 89 90 84 75 70 62 59 65 51 32 37 45 31 24 36 29 17 28 44 44 42 47 45 35 24 13
173 128 339 340 258 270 302 47 96 125 145 171 194 90 140 148 124 85 324 105 152 161 159 169 147 131 167 170 135 126 135 138 138 143 144 141 140 146 146 136 140 155 154 133 120 120 113 95 94 94 85 75 75 76 82 92 96 94 93 94 92 88 83 78 74 63 55 58 50 28 27 47 36 22 30 31 22 36 50 46 46 53 47 36 27 16
212 126 59 308 286 306 329 55 134 147 156 178 206 202 145 155 139 143 234 247 177 143 158 161 141 145 188 177 142 142 149 142 145 154 148 143 151 156 151 149 158 161 133 113 112 115 107 102 103 103 99 91 87 88 90 93 97 97 97 94 87 82 78 72 70 68 61 58 48 27 20 47 40 21 28 37 28 39 53 48 53 62 50 37 31 21
196 162 187 242 249 298 302 204 174 174 171 181 201 193 164 168 158 157 213 249 159 134 150 138 135 153 185 171 160 160 147 144 161 165 152 161 173 163 152 152 155 141 121 117 124 125 117 115 116 113 108 103 100 101 102 101 101 101 101 97 91 86 81 73 68 67 63 61 50 27 14 44 45 23 28 39 32 41 50 48 58 67 55 45 40 30
162 159 190 224 232 246 268 262 188 173 178 191 211 205 180 185 185 173 195 231 153 141 159 141 138 160 179 171 175 168 150 153 171 173 170 179 177 161 155 151 138 123 121 129 136 131 126 126 124 120 116 113 112 111 108 103 100 99 97 94 91 88 87 84 77 68 58 56 53 32 14 37 46 28 26 39 41 44 46 48 66 70 58 57 55 43
117 169 213 228 239 252 261 260 234 200 199 205 213 218 204 186 182 175 188 210 187 171 184 170 155 169 178 175 183 179 164 161 168 183 190 176 157 160 155 140 130 128 133 139 138 134 133 133 129 126 123 121 119 117 112 108 105 101 97 93 90 86 80 72 69 66 54 47 50 36 14 28 43 32 28 40 50 59 52 52 71 78 69 64 55 43
175 234 244 232 241 249 251 258 263 246 236 210 194 204 204 189 183 177 182 201 200 190 199 194 178 181 182 176 180 190 187 175 168 177 196 181 156 154 143 132 133 139 141 140 138 136 136 135 133 130 126 125 127 124 120 118 115 109 104 99 90 84 74 64 63 62 50 40 43 36 20 29 43 38 31 35 48 80 87 69 63 62 58 53 44 36
233 247 248 246 261 287 295 320 8 348 304 349 110 187 192 188 193 185 183 197 200 196 204 203 194 196 189 177 181 187 199 213 181 171 194 213 144 137 136 138 143 146 142 141 141 139 138 138 137 133 131 132 133 131 125 123 119 114 109 102 93 85 79 74 71 65 50 35 34 39 32 36 46 44 35 30 35 60 96 103 84 63 52 44 38 36
Height
772 785 792 789 788 783 778 775 774 780 792 800 804 804 802 805 809 805 802 798 792 799 807 806 808 812 813 813 811 809 810 812 815 815 817 818 819 822 821 820 821 821 822 822 823 825 825 827 828 829 830 830 831 831 831 831 832 832 832 832 833 833 833 833 833 833 832 832 832 832 832 832 832 833 833 833 834 833 833 833 832 832 831 830 830 829
777 789 790 780 778 776 770 769 770 775 785 791 795 804 815 818 812 804 802 799 793 800 807 802 806 812 811 811 809 808 810 811 812 814 817 818 819 821 819 820 821 821 822 822 823 824 824 826 827 829 830 831 832 832 833 833 833 834 834 835 835 835 836 835 835 835 835 835 834 834 834 834 834 834 835 834 835 835 834 834 834 833 832 831 831 830
786 783 778 769 766 767 765 763 767 773 779 785 789 801 819 820 812 808 802 797 797 803 807 803 807 811 808 809 809 807 809 810 810 811 814 815 817 819 820 820 821 821 823 823 823 824 825 826 828 830 831 832 833 833 834 834 835 836 837 837 837 837 837 837 837 837 837 836 836 836 836 835 836 836 836 835 835 835 835 835 835 835 834 833 832 831
788 775 766 764 764 766 766 762 765 773 779 784 790 801 811 809 813 820 809 802 800 801 807 807 810 813 809 810 811 808 808 810 811 811 811 812 815 817 818 819 820 822 823 824 824 825 826 828 829 830 832 832 833 834 835 836 837 837 838 839 839 839 839 839 839 838 838 838 837 837 837 837 838 838 837 837 836 837 837 836 836 836 835 835 834 833
779 764 755 760 764 765 765 763 765 774 781 784 788 796 801 800 806 809 804 806 807 804 806 809 819 826 818 816 816 810 809 811 812 813 813 813 813 815 817 818 819 820 822 824 825 826 826 828 830 831 832 833 834 835 836 837 837 838 839 840 840 840 840 840 840 840 840 840 839 839 839 839 839 839 839 839 838 838 838 838 837 837 836 836 835 834
771 757 752 758 760 760 763 767 769 775 784 787 786 786 786 788 794 794 796 811 827 826 810 804 828 839 821 815 818 813 813 813 812 813 815 814 813 814 816 818 818 819 821 822 824 826 828 829 830 831 832 833 835 836 837 837 838 839 840 840 841 841 841 841 841 841 841 841 841 841 840 840 840 839 840 839 839 839 838 838 837 837 837 836 836 835
762 753 754 759 759 759 763 769 769 771 786 793 783 775 775 778 785 790 795 811 834 840 815 797 821 837 822 815 815 811 813 815 814 814 814 814 813 814 814 816 818 819 820 821 823 826 828 830 831 831 832 833 835 837 837 838 838 839 841 841 842 842 842 842 842 842 843 842 842 842 842 841 841 840 840 839 840 839 839 838 838 838 837 836 836 835
758 756 759 760 760 763 767 771 766 762 780 790 774 768 773 776 781 786 793 806 816 824 817 801 812 833 831 821 813 810 814 816 816 816 815 813 813 813 814 815 818 818 819 819 822 826 828 830 831 832 833 834 836 837 838 839 839 840 842 842 842 843 843 843 843 843 843 843 843 843 843 843 842 841 841 840 840 839 839 839 838 838 838 837 836 836
757 762 763 759 765 773 772 768 762 760 773 777 767 766 769 773 779 779 788 801 798 809 827 816 810 831 836 822 811 811 816 820 818 814 814 813 812 813 815 816 816 817 817 818 821 826 828 830 831 832 833 835 836 838 839 839 840 841 842 842 842 843 844 844 844 845 844 844 844 844 844 844 843 842 842 841 840 840 840 839 839 839 839 838 837 837
759 762 759 758 767 773 769 761 759 764 771 769 764 766 767 770 776 777 788 800 802 815 830 820 810 825 834 823 815 816 816 817 816 812 812 812 811 813 815 816 816 816 816 817 821 825 828 830 832 833 834 836 837 838 840 840 841 842 842 842 843 843 844 844 845 845 845 845 844 844 844 844 844 843 842 842 841 841 840 840 840 840 839 839 838 837
759 756 753 759 765 764 761 760 761 763 765 765 765 769 773 775 775 781 792 800 817 827 819 811 807 814 829 825 817 816 809 806 810 810 810 810 810 813 814 815 816 817 815 816 820 825 828 831 832 833 835 836 838 839 840 840 841 842 842 842 843 843 844 844 844 845 845 845 845 845 845 844 844 843 843 842 842 842 841 841 841 840 840 839 839 838
758 760 761 759 759 758 759 763 762 760 762 765 772 778 785 790 786 794 808 813 827 828 807 799 798 803 825 824 809 807 800 796 803 806 806 809 810 810 812 813 814 815 814 814 819 824 827 830 832 833 836 837 839 840 840 840 841 841 842 842 843 843 843 844 844 844 845 845 845 845 845 845 844 844 843 843 843 842 842 842 841 841 840 840 839 839
763 764 764 761 758 757 765 772 769 765 765 770 784 795 802 810 810 817 832 829 822 813 794 791 798 808 818 807 793 795 791 788 793 796 800 804 805 808 810 811 811 812 813 812 817 822 826 829 831 833 835 837 838 839 839 840 840 841 841 842 842 842 843 843 844 844 844 845 845 845 845 845 845 844 844 844 843 843 843 842 842 841 841 840 840 839
784 770 761 765 765 759 766 781 787 783 778 782 796 807 811 819 826 828 831 828 821 811 792 781 795 816 814 796 787 787 783 782 785 789 793 796 799 804 806 808 810 812 813 811 814 820 823 826 829 832 834 835 837 838 839 839 840 840 840 841 841 841 842 843 843 844 844 844 844 845 845 845 845 845 844 844 844 844 844 843 842 842 841 841 840 839
806 795 773 770 770 764 765 774 784 786 787 790 791 798 805 812 824 824 821 828 829 818 798 783 798 821 817 799 787 781 777 777 782 787 790 794 798 801 804 807 810 812 812 810 811 817 821 824 827 831 832 834 835 836 838 838 839 839 840 840 840 841 841 842 842 843 843 843 844 844 844 844 845 845 844 844 844 844 844 843 842 842 841 841 841 840
799 796 771 764 765 762 766 768 770 781 795 794 785 794 801 795 804 811 810 815 818 817 807 795 800 807 800 790 780 776 775 775 781 787 790 796 799 800 805 808 809 811 811 809 810 815 820 823 826 829 831 832 834 835 836 837 837 838 839 839 839 840 840 841 842 842 842 843 843 844 844 844 844 844 844 843 844 843 843 842 842 842 842 841 841 840
797 797 767 761 765 758 762 765 764 778 794 793 791 798 791 777 788 807 811 803 805 818 813 800 806 805 798 796 785 776 778 777 781 786 789 796 800 801 806 807 807 810 810 808 811 815 819 822 825 828 830 830 831 833 834 835 836 837 838 838 838 839 839 840 841 841 841 842 842 843 843 843 843 843 843 843 843 843 842 842 841 841 841 841 841 840
790 800 770 760 770 762 757 762 762 765 775 787 794 787 777 775 781 796 815 817 816 821 812 808 820 821 818 816 798 784 784 782 782 785 788 793 796 800 806 806 806 809 809 808 811 815 818 821 823 826 828 828 829 831 832 834 835 836 837 837 837 838 838 839 840 840 841 841 842 842 842 842 842 842 843 842 842 842 842 841 841 841 841 841 840 839
772 791 776 759 767 764 756 764 772 766 761 771 776 768 774 794 801 802 814 826 830 824 817 818 821 819 822 818 801 791 789 785 783 784 788 792 794 798 802 804 805 806 807 808 810 814 817 819 822 825 826 826 827 829 830 832 834 834 836 836 836 837 838 839 840 840 841 841 841 841 841 841 842 841 842 842 842 842 841 841 841 840 840 840 839 838
763 785 786 764 759 764 763 768 782 781 766 763 766 765 770 784 798 802 799 807 818 817 818 824 822 819 817 806 797 792 786 784 785 785 789 792 793 795 797 800 803 805 807 809 810 812 814 818 821 822 825 825 826 828 828 830 832 832 834 835 835 836 837 838 839 839 840 840 840 840 840 840 841 841 841 841 841 842 841 841 841 840 840 839 838 837
762 781 789 771 759 766 770 770 776 779 774 773 775 777 776 775 783 791 792 795 803 811 825 834 829 818 803 794 796 794 785 782 783 786 790 791 791 794 796 799 802 803 806 808 808 809 811 816 819 820 823 823 823 825 826 827 829 830 832 833 833 835 837 837 838 839 839 838 839 840 840 840 840 840 840 840 840 840 840 840 840 840 839 838 836 835
767 776 783 779 772 773 770 760 760 764 766 771 774 773 775 779 784 796 805 797 788 800 821 828 828 816 795 789 796 795 788 782 780 786 792 792 792 794 796 798 800 802 805 807 808 809 810 813 816 818 821 821 821 822 824 825 827 828 829 831 832 834 835 836 837 837 837 837 838 838 839 839 839 839 840 840 839 839 840 840 839 839 838 836 835 834
764 772 779 780 772 767 762 755 757 761 760 763 768 767 769 775 781 796 809 800 789 794 797 802 818 814 791 785 792 791 787 782 779 785 792 793 793 794 796 797 799 802 804 806 808 809 810 812 814 816 818 819 819 820 822 823 825 826 828 829 831 832 833 835 836 836 836 837 837 837 837 838 838 838 839 839 839 839 839 839 838 838 837 835 834 833
764 774 783 784 772 760 757 755 757 759 761 767 769 766 769 775 777 786 792 791 795 797 789 797 819 814 789 783 785 782 781 782 782 783 789 795 795 796 798 798 800 803 804 805 808 808 811 813 814 815 816 816 817 819 820 822 823 826 827 828 830 831 832 833 834 835 835 835 836 836 836 837 837 837 838 838 838 838 837 837 837 836 836 834 834 832
773 781 787 797 797 786 779 775 773 770 768 770 771 768 770 772 774 781 782 784 795 798 793 805 820 810 790 783 781 778 783 788 786 782 787 793 795 797 798 797 799 802 803 806 808 809 811 812 812 814 814 814 815 816 818 820 822 825 826 827 828 829 831 832 833 833 834 834 835 835 836 836 836 836 836 837 837 836 836 836 836 835 835 834 833 831
775 783 786 802 818 822 819 806 792 785 776 770 771 772 772 772 777 785 786 792 803 801 796 808 816 805 789 783 781 781 786 790 786 784 786 789 792 794 795 797 799 801 804 806 808 810 811 810 810 812 813 813 813 815 816 818 820 823 824 825 827 828 829 830 832 832 832 833 834 835 835 835 835 835 835 836 836 836 836 835 835 834 833 832 831 830
773 779 778 789 804 817 821 804 783 780 782 779 778 777 776 777 780 783 789 798 801 798 801 807 806 800 792 786 784 783 786 789 787 786 788 789 791 793 794 797 799 801 804 806 807 809 810 811 811 810 812 813 813 815 816 817 819 821 823 825 826 827 827 829 830 831 831 832 832 834 834 834 834 834 834 835 835 835 834 834 834 833 832 831 830 829
777 781 779 781 786 789 792 784 775 777 781 779 778 779 780 781 781 785 793 796 792 798 810 804 793 795 794 788 787 785 785 788 788 788 789 790 792 793 794 797 799 801 804 804 805 807 808 810 811 810 812 813 814 816 816 818 819 821 823 824 824 826 826 827 828 829 830 831 831 832 833 833 833 833 833 833 833 833 833 833 832 832 832 831 829 829
779 785 780 778 781 779 778 777 777 778 778 776 777 779 781 782 783 787 790 788 787 798 806 795 788 792 791 788 787 784 783 786 787 787 788 790 792 793 795 798 799 801 802 801 802 803 805 807 809 810 812 812 814 816 816 818 820 820 822 822 822 824 825 826 827 829 830 830 830 831 831 831 832 832 832 832 832 832 832 832 832 831 831 830 829 828
777 785 780 777 779 778 777 778 777 777 779 778 777 777 778 779 781 784 787 786 787 792 791 787 788 789 785 784 784 781 781 783 783 785 787 789 791 793 795 798 798 798 798 798 799 800 802 804 806 808 811 812 814 815 817 819 820 820 820 820 821 823 823 825 826 828 829 829 830 830 830 831 831 831 832 832 832 832 832 832 831 831 830 829 829 829
778 786 779 776 782 782 778 778 779 778 778 777 776 775 776 779 781 784 786 787 789 791 788 786 791 790 783 780 781 781 781 782 785 787 787 788 790 791 793 795 795 794 793 793 795 797 799 800 802 805 808 811 813 815 816 818 818 819 819 819 821 823 823 825 827 828 829 829 829 830 830 830 831 831 831 831 831 831 831 831 831 830 830 829 829 829
779 784 776 777 789 787 777 779 782 778 778 780 780 777 777 781 784 785 785 787 790 792 790 791 794 791 785 781 783 784 783 784 789 789 788 789 789 789 791 792 792 792 791 791 793 794 796 797 799 803 806 809 812 813 815 816 817 818 819 820 822 823 824 826 826 828 828 828 829 830 830 830 830 830 830 831 832 832 831 831 831 830 830 830 829 829
775 779 776 780 792 787 776 778 780 781 792 795 783 774 775 778 781 783 783 784 785 786 791 795 793 786 782 783 786 789 786 786 789 788 789 791 790 789 792 793 793 793 793 794 794 794 795 797 799 802 806 809 811 812 814 815 817 819 820 821 823 823 824 825 826 827 828 828 829 829 829 830 830 831 831 831 832 832 831 832 831 831 831 830 829 829
772 776 776 777 786 787 777 775 781 795 808 800 776 765 769 773 778 782 782 780 781 782 785 787 784 781 782 783 786 789 787 784 785 786 787 788 790 792 794 794 796 796 796 798 798 797 799 802 804 806 809 811 813 814 816 817 819 821 822 823 824 824 825 825 825 826 827 828 829 829 829 830 831 831 832 832 833 833 832 832 832 832 831 830 830 829
773 777 777 774 780 783 777 781 801 813 803 783 768 765 768 769 772 778 778 776 777 780 781 782 781 781 782 781 780 783 783 780 782 785 786 787 790 793 795 797 799 799 800 802 803 803 805 806 808 810 811 814 815 816 818 819 820 822 822 823 824 824 825 825 825 826 827 828 828 829 830 831 831 832 833 833 834 833 833 833 833 833 832 831 831 830
772 776 777 775 778 783 785 793 808 804 783 771 772 772 770 772 775 781 786 780 774 775 780 781 780 779 780 779 778 778 779 781 783 785 786 789 790 792 795 797 799 800 802 804 806 807 808 809 811 813 814 816 816 817 819 820 821 822 822 823 823 823 824 825 826 827 828 828 829 830 831 832 832 833 834 834 835 834 834 834 834 833 832 831 831 831
768 772 776 779 781 785 791 792 789 785 781 780 779 774 772 775 776 781 790 784 771 769 775 778 778 779 779 780 778 777 779 784 788 789 788 788 790 791 793 795 798 801 803 805 808 809 811 812 813 814 815 816 817 819 820 821 821 822 822 822 823 823 824 825 826 827 828 829 830 831 832 833 834 834 835 836 835 835 835 835 834 834 833 833 832 831
766 770 775 783 784 783 792 796 792 794 796 788 778 771 768 770 769 772 785 785 770 765 771 775 777 778 779 780 781 780 784 791 794 792 788 789 789 790 793 795 798 801 803 806 809 811 813 814 815 816 817 818 819 821 821 822 822 822 822 822 823 823 825 826 827 828 829 830 832 832 833 834 835 836 836 836 836 836 836 835 835 835 834 834 833 831
768 769 771 781 786 783 792 801 800 799 795 784 775 769 767 768 766 771 788 789 771 763 769 772 774 777 778 781 781 783 791 797 796 791 789 790 790 791 793 796 798 802 805 806 809 812 814 815 816 817 818 819 821 822 822 822 822 822 822 823 823 825 826 827 828 829 830 832 833 834 835 835 836 837 837 837 837 837 837 836 836 836 835 834 833 833
773 774 775 785 788 783 788 795 790 786 783 775 770 769 766 764 766 782 805 798 772 763 769 771 773 775 776 779 782 785 791 795 793 791 789 789 790 791 793 796 799 802 805 807 810 812 813 814 815 816 818 819 820 821 822 822 822 822 823 822 823 826 827 829 830 831 832 833 834 835 836 836 837 838 837 838 838 837 837 837 836 836 836 835 835 834
776 776 778 784 785 781 787 791 785 780 776 769 766 765 763 765 777 796 805 789 769 767 770 769 772 773 773 778 783 784 786 786 787 789 788 788 791 792 794 797 799 801 804 807 810 812 813 814 814 815 817 819 820 821 821 821 821 822 823 823 825 827 828 830 832 832 834 835 835 837 837 837 838 838 837 838 838 837 837 837 837 837 837 836 836 836
777 779 780 782 783 780 780 783 784 783 774 763 763 763 763 775 791 794 783 771 767 771 771 769 771 771 772 777 781 783 784 784 785 787 788 789 792 793 795 797 799 802 806 808 810 812 813 813 813 815 817 819 820 820 820 820 821 822 824 825 827 829 830 832 833 834 835 836 837 837 838 838 838 838 838 838 838 838 838 837 837 838 837 837 838 837
769 778 782 778 777 779 781 785 791 791 774 761 765 769 770 778 783 775 768 767 768 769 770 772 771 769 772 777 779 782 784 784 786 788 789 791 792 794 796 798 800 804 807 809 810 812 812 813 813 816 818 819 820 821 820 820 822 823 825 827 829 831 832 833 834 835 836 837 838 838 838 838 838 838 838 838 838 838 838 838 838 839 838 839 839 838
761 770 778 772 767 775 785 787 785 778 765 759 765 770 769 769 766 763 765 769 767 767 770 771 770 769 771 775 778 781 783 785 788 789 790 792 794 795 797 798 801 805 807 808 810 812 813 814 815 817 819 820 821 822 821 821 823 825 827 829 830 832 833 834 836 836 837 837 838 838 838 838 839 838 838 838 838 838 838 838 839 839 839 840 840 839
759 760 768 769 764 764 769 770 766 762 759 759 760 761 761 761 760 761 765 766 766 767 767 768 771 771 770 773 777 780 783 785 787 789 791 793 794 796 798 800 802 805 806 807 811 812 814 815 816 818 821 822 822 823 823 824 826 827 829 830 832 833 834 835 836 837 837 838 839 839 839 839 839 839 838 838 839 838 838 839 840 840 841 841 841 841
750 750 759 764 761 758 757 756 756 759 760 759 757 757 757 758 759 761 763 764 764 764 764 766 770 771 770 772 775 780 783 785 787 788 790 792 794 796 798 800 802 804 806 808 811 813 814 816 818 820 822 823 824 825 825 827 828 829 830 832 833 834 835 836 837 837 838 839 839 839 839 839 839 839 839 839 839 839 839 840 840 841 842 842 842 842
745 748 757 761 763 766 766 758 753 756 759 757 757 757 756 758 759 760 763 763 761 762 764 765 767 770 771 772 774 778 781 783 786 788 789 790 792 794 796 799 801 803 806 809 812 814 815 817 819 821 822 824 825 826 827 828 829 830 832 833 834 835 836 837 838 838 838 839 839 839 839 839 839 839 839 839 839 839 840 840 841 841 842 842 843 842
749 751 757 760 761 764 764 755 749 752 754 753 755 756 756 758 760 759 760 761 760 762 764 764 766 770 771 772 774 776 779 782 785 786 787 788 789 791 794 798 801 803 807 810 812 814 816 818 819 821 822 824 826 827 828 829 830 831 832 833 834 835 836 837 838 838 839 839 839 840 839 839 839 839 839 840 840 839 840 841 841 841 842 842 843 842
754 756 757 758 760 761 759 752 750 754 755 753 753 753 753 755 757 759 760 761 761 763 764 764 766 768 769 771 773 774 777 780 782 783 783 784 786 789 792 796 800 804 807 809 812 814 816 818 819 821 822 824 826 828 829 830 831 832 833 834 835 836 836 837 837 838 839 839 839 840 840 839 839 840 840 840 840 840 840 841 841 841 841 842 842 842
754 758 755 757 764 766 760 752 750 756 757 753 750 750 750 751 754 757 760 761 762 764 764 765 766 767 768 770 771 773 776 777 778 780 781 780 782 787 791 794 799 803 806 809 812 814 816 818 819 820 823 825 827 828 829 830 832 833 833 835 835 836 837 837 838 838 839 839 840 840 840 840 840 840 840 840 840 840 840 841 841 841 841 841 841 841
749 752 751 755 761 760 753 747 747 752 754 749 746 747 748 748 751 755 758 760 761 762 762 764 766 767 768 769 770 772 774 774 775 777 779 779 781 785 789 794 798 801 805 808 811 813 816 817 819 820 822 825 827 828 829 830 832 833 834 835 836 836 837 837 838 839 840 840 840 840 840 840 840 841 841 841 841 840 841 841 841 841 841 841 841 841